Other Public Products
Issued by NWS Grand Forks, ND

Home | Current Version | Previous Version | Graphics & Text | Print | Product List | Glossary On
Versions: 1 2 3 4 5 6 7 8 9 10 11 12 13 14 15 16 17 18 19 20 21 22 23 24 25 26 27 28 29 30 31 32 33 34 35 36 37 38 39 40 41 42 43 44 45 46 47 48 49 50
000
FPUS83 KFGF 170010
OPUFGF
PRAIRIE TO PINES WEATHER ROUNDUP
NATIONAL WEATHER SERVICE EASTERN NORTH DAKOTA/GRAND FORKS ND
700 PM CDT TUE SEP 16 2014

 **SATELLITE DATA USED TO AUGMENT SKY COVER AT AUTOMATED STATIONS**
 *****  WEATHER ACROSS EASTERN NORTH DAKOTA  *****

CITY           SKY/WX    TMP DP  RH WIND       PRES   REMARKS
GRAND FORKS    PTCLDY    67  48  50 S6        29.92S
6HR MIN TEMP:  67; 6HR MAX TEMP:  75;

GRAND FORKS AF CLEAR     67  46  45 S6        29.93S
GRAND CITY NWS   N/A     66 N/A N/A SW5         N/A
BUXTON         NOT AVBL
DEVILS LAKE    CLEAR     66  45  45 SE5       29.91F
6HR MIN TEMP:  66; 6HR MAX TEMP:  72;

FARGO          CLEAR     67  45  45 SE5       29.94F
6HR MIN TEMP:  67; 6HR MAX TEMP:  72;

WAHPETON ARPT  MOCLDY    64  41  42 SE9       29.95F
$$

 *****  WEATHER ACROSS CENTRAL AND WESTERN NORTH DAKOTA  *****

CITY           SKY/WX    TMP DP  RH WIND       PRES   REMARKS
JAMESTOWN      CLEAR     68  47  46 CALM      29.93F
6HR MIN TEMP:  66; 6HR MAX TEMP:  70;

BISMARCK       CLEAR     72  45  37 CALM      29.92S
6HR MIN TEMP:  67; 6HR MAX TEMP:  77;

MINOT          CLEAR     69  47  45 NW5       29.91S
6HR MIN TEMP:  69; 6HR MAX TEMP:  74;

MINOT AFB      CLEAR     70  46  42 E2        29.91S
6HR MIN TEMP:  68; 6HR MAX TEMP:  71;

GARRISON         N/A     69  43  38 W3        29.92S
6HR MIN TEMP:  63; 6HR MAX TEMP:  72;

WILLISTON      CLEAR     71  40  32 SW5       29.92S
6HR MIN TEMP:  69; 6HR MAX TEMP:  76;

DICKINSON      CLEAR     70  47  43 NE5       29.92F
6HR MIN TEMP:  69; 6HR MAX TEMP:  74;

HETTINGER      CLEAR     71  49  45 N7        29.93S
6HR MIN TEMP:  70; 6HR MAX TEMP:  78;

$$

 *****  OTHER OBSERVATIONS NORTHEAST NORTH DAKOTA  *****

CITY           SKY/WX    TMP DP  RH WIND       PRES   REMARKS
WALHALLA         N/A     68  45  42 NE5       29.90S
LANGDON        FAIR      68  37  32 SW9       29.91S
CAVALIER       FAIR      68  48  49 CALM      29.90S HAZE
GRAFTON        FAIR      68  45  42 SW8       29.90S
CANDO          FAIR      66  41  39 S5        29.93S
FORT TOTTEN    NOT AVBL
ROLLA          FAIR      66  41  39 SW6       29.93S
RUGBY          FAIR      70  45  40 CALM      29.92S
 ***** THE ABOVE OBSERVATIONS ARE NON NWS ARE NOT QUALITY
        CONTROLLED AND MAY MIS-REPORT RAIN FOR SNOW...
$$

 *****  OTHER OBSERVATIONS SOUTHEAST NORTH DAKOTA *****

CITY           SKY/WX    TMP DP  RH WIND       PRES   REMARKS
COOPERSTOWN    NOT AVBL
VALLEY CITY    FAIR      66  48  52 SE6       29.93F
OAKES            N/A     68  54  60 SW3       29.92F
GWINNER        CLEAR     70  52  52 S6        29.93F
SHEYENNE NWR     N/A     68  48  49 SE7       29.95S
BUFFALO        NOT AVBL
WYNDMERE         N/A     68  48  49 SE6         N/A
 ***** THE ABOVE OBSERVATIONS ARE NON NWS ARE NOT QUALITY
       CONTROLLED AND MAY MIS-REPORT RAIN FOR SNOW...
$$

  *****  WEATHER ACROSS NORTHERN MINNESOTA  *****

CITY           SKY/WX    TMP DP  RH WIND       PRES   REMARKS
FLAG ISLAND    MOCLDY    57  52  82 S7        29.92F
WARROAD        MOCLDY    57  52  82 E3        29.94F
ROSEAU         CLOUDY    61  52  72 E5        29.93F
HALLOCK        CLEAR     70  46  43 E6        29.90S
THF RVR FALLS  CLEAR     66  43  42 S6        29.94S
6HR MIN TEMP:  64; 6HR MAX TEMP:  72;

HALSTAD          N/A     65  39  38 S6          N/A
FOSSTON        CLEAR     66  43  42 SW5       29.97S
BAUDETTE       CLOUDY    56  50  80 E5        29.94F
6HR MIN TEMP:  56; 6HR MAX TEMP:  59;

WASKISH        CLOUDY    61  48  63 CALM      29.94F
CROOKSTON      CLEAR     66  45  45 S6        29.94F
$$
  *****  WEATHER ACROSS CENTRAL AND WEST MINNESOTA  *****

CITY           SKY/WX    TMP DP  RH WIND       PRES   REMARKS
BEMIDJI        CLEAR     64  43  45 SW5       29.97S
PARK RAPIDS    CLEAR     62  38  40 SW5       29.98F
6HR MIN TEMP:  62; 6HR MAX TEMP:  69;

WADENA         NOT AVBL
DETROIT LAKES  CLEAR     63  43  48 SE6       29.99F
MOORHEAD       CLEAR     68  39  34 SE3       29.95F
FERGUS FALLS   CLEAR     64  43  45 SE6       29.97S
ELBOW LAKE     CLOUDY    63  46  54 SE6       29.98S
6HR MIN TEMP:  63; 6HR MAX TEMP:  68;

MORRIS MN      MOCLDY    66  48  52 SE5       29.97S
STAPLES        CLEAR     61  41  48 CALM      29.99F
WHEATON        MOCLDY    63  48  59 SE7       29.97F
$$
  *****  WEATHER ELSEWHERE ACROSS MINNESOTA  *****

CITY           SKY/WX    TMP DP  RH WIND       PRES   REMARKS
DULUTH         PTCLDY    63  43  48 SW10      29.98F
6HR MIN TEMP:  63; 6HR MAX TEMP:  69;

INTRNTL FALLS  CLOUDY    56  51  84 CALM      29.95F
6HR MIN TEMP:  55; 6HR MAX TEMP:  60;

ELY            CLOUDY    57  46  67 CALM      29.97S
CLOQUET        CLEAR     61  39  44 SW6       30.00S
BRAINERD       CLEAR     60  43  53 S5        30.00F
6HR MIN TEMP:  60; 6HR MAX TEMP:  66;

HIBBING        CLEAR     64  45  49 SW3       29.97F
6HR MIN TEMP:  64; 6HR MAX TEMP:  70;

ALEXANDRIA     CLOUDY    62  47  57 SE5       30.01S
6HR MIN TEMP:  62; 6HR MAX TEMP:  67;

SAINT CLOUD    PTCLDY    63  45  51 SE5       30.00F
6HR MIN TEMP:  63; 6HR MAX TEMP:  70;

MINNEAPOLIS    PTCLDY    64  42  44 S6        30.02F
6HR MIN TEMP:  63; 6HR MAX TEMP:  68;

$$

  *****  WEATHER ACROSS SOUTH DAKOTA  *****

CITY           SKY/WX    TMP DP  RH WIND       PRES   REMARKS
SIOUX FALLS    MOCLDY    65  50  58 S13       29.98F
6HR MIN TEMP:  65; 6HR MAX TEMP:  68;

BROOKINGS      NOT AVBL
WATERTOWN      CLEAR     64  51  62 S8        29.95F
6HR MIN TEMP:  64; 6HR MAX TEMP:  69;

HURON          PTCLDY    71  55  56 S7        29.90F
6HR MIN TEMP:  67; 6HR MAX TEMP:  74;

SISSETON         N/A     66  50  56 S7        29.93S
ABERDEEN       CLEAR     66  56  70 SE5       29.91F
6HR MIN TEMP:  64; 6HR MAX TEMP:  71;

MITCHELL       PTCLDY    70  56  61 S12       29.93F
PIERRE         PTCLDY    73  54  51 S5        29.88F
6HR MIN TEMP:  68; 6HR MAX TEMP:  78;

MOBRIDGE       PTCLDY    74  51  44 CALM      29.89S
RAPID CITY     SUNNY     76  49  38 SE5       29.95S
6HR MIN TEMP:  75; 6HR MAX TEMP:  82;

$$

  *****  SOME WEATHER IN NEARBY STATES *****

CITY           SKY/WX    TMP DP  RH WIND       PRES   REMARKS
GLASGOW MT     SUNNY     75  42  30 S5        29.89F
6HR MIN TEMP:  68; 6HR MAX TEMP:  77;

GREAT FALLS MT CLOUDY    73  47  39 S7        29.91F
6HR MIN TEMP:  72; 6HR MAX TEMP:  81;

CHEYENNE WY    SUNNY     80  28  15 NW12      30.14F
6HR MIN TEMP:  77; 6HR MAX TEMP:  82;

SCOTTSBLUFF NE SUNNY     84  39  20 S7        29.98F
6HR MIN TEMP:  74; 6HR MAX TEMP:  89;

OMAHA NE       PTCLDY    66  48  52 S9        30.03F
6HR MIN TEMP:  63; 6HR MAX TEMP:  69;

DES MOINES IA  CLEAR     65  48  54 S3        30.06F
6HR MIN TEMP:  64; 6HR MAX TEMP:  68;

DAVENPORT IA   CLEAR     60  44  55 SW3       30.10F
6HR MIN TEMP:  60; 6HR MAX TEMP:  66;

CHICAGO IL     CLEAR     67  40  37 N7        30.09S
6HR MIN TEMP:  63; 6HR MAX TEMP:  68;

EAU CLAIRE WI  CLEAR     61  43  51 S5        30.05S
6HR MIN TEMP:  61; 6HR MAX TEMP:  67;

LA CROSSE WI   CLEAR     64  44  48 S3        30.06F
6HR MIN TEMP:  64; 6HR MAX TEMP:  69;

$$

  *****  SOME NATIONAL WEATHER *****

CITY           SKY/WX    TMP DP  RH WIND       PRES   REMARKS



USA.gov is the U.S. government's official web portal to all federal, state and local government web resources and services.